Location: Newark
(35.0167°N, 135.7667°E)
Time: 21:33:19
(UTC+00:00)

N. Korean satellite - Pass Details

Date: 24 October 2019
Orbit: 456 x 506 km, 97.2° (Epoch: 20 November)

Event Time Altitude Azimuth Distance (km) Brightness Sun altitude
Rises 08:56:00 0° 201° (SSW) 2,459 10.6 -9.7°
Reaches altitude 10° 08:58:32 10° 222° (SW) 1,594 10.0 -10.2°
Maximum altitude 09:00:51 17° 265° (W) 1,228 9.9 -10.7°
Drops below altitude 10° 09:03:12 10° 308° (NW) 1,611 9.9 -11.1°
Sets 09:05:48 0° 329° (NNW) 2,499 10.5 -11.7°
